Time,TemperatureF,DewpointF,PressureIn,WindDirection,WindDirectionDegrees,WindSpeedMPH,WindSpeedGustMPH,Humidity,HourlyPrecipIn,Conditions,Clouds,dailyrainin,SoftwareType,DateUTC
2013-09-07 00:00:00,53.4,51.4,29.96,North,0,0.0,0.0,92,0.00,,,0.00,meteo_script,2013-09-07 04:00:00,
2013-09-07 00:05:00,53.4,51.4,29.96,North,0,0.0,1.0,93,0.00,,,0.00,meteo_script,2013-09-07 04:05:00,
2013-09-07 00:10:00,53.4,51.4,29.96,North,0,0.0,0.0,93,0.00,,,0.00,meteo_script,2013-09-07 04:10:00,
2013-09-07 00:15:00,53.3,51.4,29.96,North,0,0.0,1.0,93,0.00,,,0.00,meteo_script,2013-09-07 04:15:00,
2013-09-07 00:20:00,53.3,51.3,29.96,North,0,0.0,0.0,93,0.00,,,0.00,meteo_script,2013-09-07 04:20:00,
2013-09-07 00:25:00,53.2,51.4,29.96,North,0,0.0,1.0,93,0.00,,,0.00,meteo_script,2013-09-07 04:25:00,
2013-09-07 00:30:00,53.1,51.4,29.96,North,0,0.0,0.0,94,0.00,,,0.00,meteo_script,2013-09-07 04:30:00,
2013-09-07 00:35:00,53.0,51.3,29.96,North,0,0.0,0.0,94,0.00,,,0.00,meteo_script,2013-09-07 04:35:00,
2013-09-07 00:40:00,52.9,51.2,29.96,North,0,0.0,0.0,94,0.00,,,0.00,meteo_script,2013-09-07 04:40:00,
2013-09-07 00:45:00,52.8,51.1,29.96,North,0,0.0,0.0,94,0.00,,,0.00,meteo_script,2013-09-07 04:45:00,
2013-09-07 00:50:00,52.8,51.1,29.95,North,0,0.0,0.0,94,0.00,,,0.00,meteo_script,2013-09-07 04:50:00,
2013-09-07 00:55:00,52.7,51.0,29.96,North,0,0.0,0.0,94,0.00,,,0.00,meteo_script,2013-09-07 04:55:00,
2013-09-07 01:00:00,52.7,51.0,29.95,North,0,0.0,0.0,94,0.00,,,0.00,meteo_script,2013-09-07 05:00:00,
2013-09-07 01:10:00,52.7,51.0,29.95,North,0,0.0,1.0,94,0.00,,,0.00,meteo_script,2013-09-07 05:10:00,
2013-09-07 01:15:00,52.7,51.0,29.95,North,0,0.0,0.0,94,0.00,,,0.00,meteo_script,2013-09-07 05:15:00,
2013-09-07 01:20:00,52.6,50.9,29.95,North,0,0.0,0.0,94,0.00,,,0.00,meteo_script,2013-09-07 05:20:00,
2013-09-07 01:30:00,52.5,50.9,29.95,North,0,0.0,0.0,94,0.00,,,0.00,meteo_script,2013-09-07 05:30:00,
2013-09-07 01:35:00,52.5,50.8,29.95,North,0,0.0,0.0,94,0.00,,,0.00,meteo_script,2013-09-07 05:35:00,
2013-09-07 01:40:00,52.4,50.9,29.94,North,0,0.0,0.0,94,0.00,,,0.00,meteo_script,2013-09-07 05:40:00,
2013-09-07 01:50:00,52.4,50.7,29.94,North,0,0.0,0.0,94,0.00,,,0.00,meteo_script,2013-09-07 05:50:00,
2013-09-07 01:55:00,52.3,50.7,29.94,North,0,0.0,0.0,94,0.00,,,0.00,meteo_script,2013-09-07 05:55:00,
2013-09-07 02:05:00,52.3,50.6,29.94,North,0,0.0,0.0,94,0.00,,,0.00,meteo_script,2013-09-07 06:05:00,
2013-09-07 02:10:00,52.3,50.6,29.93,North,0,0.0,0.0,94,0.00,,,0.00,meteo_script,2013-09-07 06:10:00,
2013-09-07 02:15:00,52.3,50.6,29.93,North,0,0.0,0.0,94,0.00,,,0.00,meteo_script,2013-09-07 06:15:00,
2013-09-07 02:25:00,52.4,50.7,29.93,North,0,0.0,0.0,94,0.00,,,0.00,meteo_script,2013-09-07 06:25:00,
2013-09-07 02:30:00,52.2,50.6,29.93,North,0,0.0,0.0,94,0.00,,,0.00,meteo_script,2013-09-07 06:30:00,
2013-09-07 02:40:00,52.0,50.3,29.93,North,0,0.0,0.0,94,0.00,,,0.00,meteo_script,2013-09-07 06:40:00,
2013-09-07 02:45:00,52.0,50.3,29.93,North,0,0.0,0.0,94,0.00,,,0.00,meteo_script,2013-09-07 06:45:00,
2013-09-07 02:50:00,51.9,50.2,29.93,North,0,0.0,0.0,94,0.00,,,0.00,meteo_script,2013-09-07 06:50:00,
2013-09-07 03:00:00,51.7,50.3,29.93,North,0,0.0,1.0,95,0.00,,,0.00,meteo_script,2013-09-07 07:00:00,
2013-09-07 03:05:00,51.6,50.2,29.93,North,0,0.0,1.0,95,0.00,,,0.00,meteo_script,2013-09-07 07:05:00,
2013-09-07 03:10:00,51.5,50.1,29.93,North,0,0.0,1.0,95,0.00,,,0.00,meteo_script,2013-09-07 07:10:00,
2013-09-07 03:15:00,51.4,50.2,29.93,North,0,0.0,0.0,95,0.00,,,0.00,meteo_script,2013-09-07 07:15:00,
2013-09-07 03:25:00,51.2,50.1,29.93,North,0,0.0,0.0,96,0.00,,,0.00,meteo_script,2013-09-07 07:25:00,
2013-09-07 03:30:00,51.1,50.0,29.93,North,0,0.0,0.0,96,0.00,,,0.00,meteo_script,2013-09-07 07:30:00,
2013-09-07 03:40:00,51.0,50.0,29.93,North,0,0.0,0.0,96,0.00,,,0.00,meteo_script,2013-09-07 07:40:00,
2013-09-07 03:45:00,50.9,50.1,29.93,North,0,0.0,0.0,97,0.00,,,0.00,meteo_script,2013-09-07 07:45:00,
2013-09-07 03:55:00,50.7,50.0,29.93,North,0,0.0,0.0,97,0.00,,,0.00,meteo_script,2013-09-07 07:55:00,
2013-09-07 04:00:00,50.7,50.0,29.93,North,0,0.0,0.0,97,0.00,,,0.00,meteo_script,2013-09-07 08:00:00,
2013-09-07 04:10:00,50.9,50.0,29.93,North,0,0.0,1.0,96,0.00,,,0.00,meteo_script,2013-09-07 08:10:00,
2013-09-07 04:20:00,51.0,49.9,29.92,North,0,0.0,0.0,96,0.00,,,0.00,meteo_script,2013-09-07 08:20:00,
2013-09-07 04:25:00,51.0,49.9,29.92,North,0,0.0,0.0,96,0.00,,,0.00,meteo_script,2013-09-07 08:25:00,
2013-09-07 04:30:00,51.1,49.9,29.93,North,0,0.0,0.0,95,0.00,,,0.00,meteo_script,2013-09-07 08:30:00,
2013-09-07 04:35:00,51.1,50.0,29.93,North,0,0.0,0.0,96,0.00,,,0.00,meteo_script,2013-09-07 08:35:00,
2013-09-07 04:40:00,51.0,49.9,29.93,North,0,0.0,0.0,96,0.00,,,0.00,meteo_script,2013-09-07 08:40:00,
2013-09-07 04:45:00,51.1,50.0,29.93,North,0,0.0,0.0,96,0.00,,,0.00,meteo_script,2013-09-07 08:45:00,
2013-09-07 04:50:00,51.2,50.1,29.93,North,0,0.0,0.0,96,0.00,,,0.00,meteo_script,2013-09-07 08:50:00,
2013-09-07 04:55:00,51.2,50.1,29.93,North,0,0.0,0.0,96,0.00,,,0.00,meteo_script,2013-09-07 08:55:00,
2013-09-07 05:05:00,51.3,50.2,29.92,North,0,0.0,0.0,95,0.00,,,0.00,meteo_script,2013-09-07 09:05:00,
2013-09-07 05:10:00,51.2,50.1,29.92,North,0,0.0,0.0,96,0.00,,,0.00,meteo_script,2013-09-07 09:10:00,
2013-09-07 05:20:00,51.1,50.0,29.92,North,0,0.0,0.0,96,0.00,,,0.00,meteo_script,2013-09-07 09:20:00,
2013-09-07 05:25:00,51.1,50.0,29.92,North,0,0.0,0.0,96,0.00,,,0.00,meteo_script,2013-09-07 09:25:00,
2013-09-07 05:30:00,51.1,50.0,29.92,North,0,0.0,1.0,96,0.00,,,0.00,meteo_script,2013-09-07 09:30:00,
2013-09-07 05:40:00,51.3,50.0,29.91,North,0,0.0,1.0,95,0.00,,,0.00,meteo_script,2013-09-07 09:40:00,
2013-09-07 05:45:00,51.4,50.0,29.91,North,0,0.0,1.0,95,0.00,,,0.00,meteo_script,2013-09-07 09:45:00,
2013-09-07 05:55:00,51.5,50.1,29.92,North,0,0.0,0.0,95,0.00,,,0.00,meteo_script,2013-09-07 09:55:00,
2013-09-07 06:00:00,51.5,50.1,29.92,North,0,0.0,0.0,95,0.00,,,0.00,meteo_script,2013-09-07 10:00:00,
2013-09-07 06:05:00,51.5,50.1,29.91,North,0,0.0,0.0,95,0.00,,,0.00,meteo_script,2013-09-07 10:05:00,
2013-09-07 06:15:00,51.4,50.0,29.91,North,0,0.0,0.0,95,0.00,,,0.00,meteo_script,2013-09-07 10:15:00,
2013-09-07 06:20:00,51.4,49.9,29.91,North,0,0.0,0.0,94,0.00,,,0.00,meteo_script,2013-09-07 10:20:00,
2013-09-07 06:30:00,51.4,50.0,29.91,North,0,0.0,0.0,95,0.00,,,0.00,meteo_script,2013-09-07 10:30:00,
2013-09-07 06:35:00,51.4,50.1,29.92,North,0,0.0,0.0,95,0.00,,,0.00,meteo_script,2013-09-07 10:35:00,
2013-09-07 06:40:00,51.4,50.3,29.92,North,0,0.0,0.0,96,0.00,,,0.00,meteo_script,2013-09-07 10:40:00,
2013-09-07 06:50:00,51.2,50.4,29.92,North,0,0.0,0.0,97,0.00,,,0.00,meteo_script,2013-09-07 10:50:00,
2013-09-07 06:55:00,50.6,50.0,29.93,North,0,0.0,0.0,98,0.00,,,0.00,meteo_script,2013-09-07 10:55:00,
2013-09-07 07:05:00,49.6,49.6,29.93,North,0,0.0,0.0,100,0.00,,,0.00,meteo_script,2013-09-07 11:05:00,
2013-09-07 07:10:00,49.7,49.7,29.93,North,0,0.0,0.0,100,0.00,,,0.00,meteo_script,2013-09-07 11:10:00,
2013-09-07 07:15:00,49.8,49.8,29.93,North,0,0.0,0.0,100,0.00,,,0.00,meteo_script,2013-09-07 11:15:00,
2013-09-07 07:25:00,50.2,50.2,29.92,North,0,0.0,0.0,100,0.00,,,0.00,meteo_script,2013-09-07 11:25:00,
2013-09-07 07:30:00,50.5,50.5,29.92,North,0,0.0,0.0,100,0.00,,,0.00,meteo_script,2013-09-07 11:30:00,
2013-09-07 07:40:00,51.0,50.7,29.92,North,0,0.0,0.0,99,0.00,,,0.00,meteo_script,2013-09-07 11:40:00,
2013-09-07 07:45:00,51.3,50.8,29.92,North,0,0.0,0.0,98,0.00,,,0.00,meteo_script,2013-09-07 11:45:00,
2013-09-07 07:50:00,51.6,51.1,29.92,North,0,0.0,0.0,98,0.00,,,0.00,meteo_script,2013-09-07 11:50:00,
2013-09-07 07:55:00,51.9,51.4,29.92,North,0,0.0,0.0,98,0.00,,,0.00,meteo_script,2013-09-07 11:55:00,
2013-09-07 08:00:00,52.2,51.4,29.91,North,0,0.0,0.0,97,0.00,,,0.00,meteo_script,2013-09-07 12:00:00,
2013-09-07 08:10:00,52.8,51.7,29.91,North,0,0.0,0.0,96,0.00,,,0.00,meteo_script,2013-09-07 12:10:00,
2013-09-07 08:15:00,53.1,52.0,29.91,North,0,0.0,0.0,96,0.00,,,0.00,meteo_script,2013-09-07 12:15:00,
2013-09-07 08:20:00,53.4,52.3,29.90,North,0,0.0,0.0,96,0.00,,,0.00,meteo_script,2013-09-07 12:20:00,
2013-09-07 08:25:00,53.7,52.4,29.90,North,0,0.0,0.0,95,0.00,,,0.00,meteo_script,2013-09-07 12:25:00,
2013-09-07 08:30:00,53.9,52.7,29.90,North,0,0.0,0.0,95,0.00,,,0.00,meteo_script,2013-09-07 12:30:00,
2013-09-07 08:40:00,54.6,53.2,29.91,North,0,0.0,0.0,95,0.00,,,0.00,meteo_script,2013-09-07 12:40:00,
2013-09-07 08:45:00,54.9,53.5,29.90,North,0,0.0,0.0,94,0.00,,,0.00,meteo_script,2013-09-07 12:45:00,
2013-09-07 08:55:00,55.8,53.9,29.90,North,0,0.0,1.0,93,0.00,,,0.00,meteo_script,2013-09-07 12:55:00,
2013-09-07 09:00:00,56.2,54.1,29.90,North,0,0.0,0.0,92,0.00,,,0.00,meteo_script,2013-09-07 13:00:00,
2013-09-07 09:10:00,57.5,54.8,29.89,SSW,208,0.0,1.0,90,0.00,,,0.00,meteo_script,2013-09-07 13:10:00,
2013-09-07 09:15:00,58.1,54.9,29.90,SSW,208,0.1,1.0,89,0.00,,,0.00,meteo_script,2013-09-07 13:15:00,
2013-09-07 09:25:00,58.9,55.4,29.90,SSW,208,0.0,1.0,88,0.00,,,0.00,meteo_script,2013-09-07 13:25:00,
2013-09-07 09:30:00,59.2,55.6,29.89,North,0,0.0,1.0,87,0.00,,,0.00,meteo_script,2013-09-07 13:30:00,
2013-09-07 09:35:00,59.6,55.8,29.89,North,0,0.1,1.0,87,0.00,,,0.00,meteo_script,2013-09-07 13:35:00,
2013-09-07 09:45:00,60.3,56.1,29.89,SSW,208,0.2,2.0,86,0.00,,,0.00,meteo_script,2013-09-07 13:45:00,
2013-09-07 09:50:00,60.8,56.2,29.89,North,0,0.2,1.0,84,0.00,,,0.00,meteo_script,2013-09-07 13:50:00,
2013-09-07 09:55:00,61.3,56.4,29.89,North,0,0.1,2.0,84,0.00,,,0.00,meteo_script,2013-09-07 13:55:00,
2013-09-07 10:05:00,62.3,57.0,29.89,North,0,0.2,2.0,82,0.00,,,0.00,meteo_script,2013-09-07 14:05:00,
2013-09-07 10:10:00,62.8,56.9,29.89,SSW,208,0.2,2.0,81,0.00,,,0.00,meteo_script,2013-09-07 14:10:00,
2013-09-07 10:20:00,63.7,57.1,29.89,SSW,208,0.4,4.0,79,0.00,,,0.00,meteo_script,2013-09-07 14:20:00,
2013-09-07 10:25:00,64.0,57.8,29.89,SW,224,0.6,3.0,80,0.00,,,0.00,meteo_script,2013-09-07 14:25:00,
2013-09-07 10:35:00,66.1,58.8,29.89,SW,224,0.3,2.0,77,0.00,,,0.00,meteo_script,2013-09-07 14:35:00,
2013-09-07 10:40:00,66.8,59.0,29.89,South,189,0.5,4.0,76,0.00,,,0.00,meteo_script,2013-09-07 14:40:00,
2013-09-07 10:50:00,68.6,59.5,29.88,WSW,237,0.4,3.0,72,0.00,,,0.00,meteo_script,2013-09-07 14:50:00,
2013-09-07 10:55:00,69.3,59.9,29.88,SW,226,0.5,4.0,72,0.00,,,0.00,meteo_script,2013-09-07 14:55:00,
2013-09-07 11:00:00,70.5,61.0,29.88,SW,228,0.4,3.0,72,0.00,,,0.00,meteo_script,2013-09-07 15:00:00,
2013-09-07 11:10:00,72.5,60.2,29.87,SSW,193,0.8,6.0,65,0.00,,,0.00,meteo_script,2013-09-07 15:10:00,
2013-09-07 11:15:00,73.1,60.8,29.87,South,186,0.6,3.0,65,0.00,,,0.00,meteo_script,2013-09-07 15:15:00,
2013-09-07 11:25:00,75.2,60.9,29.86,South,186,0.6,3.0,61,0.00,,,0.00,meteo_script,2013-09-07 15:25:00,
2013-09-07 11:30:00,75.9,62.1,29.86,South,187,0.8,3.0,62,0.00,,,0.00,meteo_script,2013-09-07 15:30:00,
2013-09-07 11:40:00,76.9,61.6,29.86,NNE,21,0.4,2.0,59,0.00,,,0.00,meteo_script,2013-09-07 15:40:00,
2013-09-07 11:45:00,77.0,61.9,29.85,South,171,0.7,3.0,59,0.00,,,0.00,meteo_script,2013-09-07 15:45:00,
2013-09-07 11:55:00,77.3,62.0,29.85,SSW,210,1.3,4.0,59,0.00,,,0.00,meteo_script,2013-09-07 15:55:00,
2013-09-07 12:00:00,78.5,62.6,29.85,SSW,210,0.7,3.0,58,0.00,,,0.00,meteo_script,2013-09-07 16:00:00,
2013-09-07 12:05:00,79.3,62.2,29.84,WSW,257,0.6,3.0,55,0.00,,,0.00,meteo_script,2013-09-07 16:05:00,
2013-09-07 12:15:00,80.0,61.9,29.84,SSW,207,1.0,4.0,54,0.00,,,0.00,meteo_script,2013-09-07 16:15:00,
2013-09-07 12:20:00,80.0,62.4,29.84,SW,216,1.0,3.0,55,0.00,,,0.00,meteo_script,2013-09-07 16:20:00,
2013-09-07 12:25:00,80.4,62.7,29.84,WSW,257,0.7,2.0,55,0.00,,,0.00,meteo_script,2013-09-07 16:25:00,
2013-09-07 12:35:00,81.0,62.9,29.84,SSW,205,1.1,4.0,54,0.00,,,0.00,meteo_script,2013-09-07 16:35:00,
2013-09-07 12:40:00,81.0,62.4,29.83,SW,236,0.7,2.0,53,0.00,,,0.00,meteo_script,2013-09-07 16:40:00,
2013-09-07 12:50:00,82.6,63.8,29.83,WSW,245,0.6,3.0,53,0.00,,,0.00,meteo_script,2013-09-07 16:50:00,
2013-09-07 12:55:00,82.0,62.6,29.83,SW,229,1.0,5.0,52,0.00,,,0.00,meteo_script,2013-09-07 16:55:00,
2013-09-07 13:05:00,82.0,62.7,29.83,South,185,0.8,3.0,52,0.00,,,0.00,meteo_script,2013-09-07 17:05:00,
2013-09-07 13:10:00,82.6,63.6,29.83,SSW,208,0.9,7.0,52,0.00,,,0.00,meteo_script,2013-09-07 17:10:00,
2013-09-07 13:15:00,81.8,62.1,29.82,SSW,202,1.6,4.0,51,0.00,,,0.00,meteo_script,2013-09-07 17:15:00,
2013-09-07 13:25:00,82.8,63.3,29.83,North,0,0.7,2.0,52,0.00,,,0.00,meteo_script,2013-09-07 17:25:00,
2013-09-07 13:30:00,83.6,64.6,29.82,SW,232,0.3,2.0,52,0.00,,,0.00,meteo_script,2013-09-07 17:30:00,
2013-09-07 13:35:00,83.6,62.1,29.82,SW,230,0.7,3.0,48,0.00,,,0.00,meteo_script,2013-09-07 17:35:00,
2013-09-07 13:45:00,83.1,62.7,29.82,SW,215,0.8,3.0,50,0.00,,,0.00,meteo_script,2013-09-07 17:45:00,
2013-09-07 13:50:00,83.6,63.6,29.81,SW,215,0.2,1.0,51,0.00,,,0.00,meteo_script,2013-09-07 17:50:00,
2013-09-07 14:00:00,84.5,64.8,29.81,SW,215,0.6,2.0,51,0.00,,,0.00,meteo_script,2013-09-07 18:00:00,
2013-09-07 14:05:00,84.8,64.2,29.80,SW,215,0.5,2.0,50,0.00,,,0.00,meteo_script,2013-09-07 18:05:00,
2013-09-07 14:10:00,84.9,65.5,29.80,SW,215,0.3,1.0,52,0.00,,,0.00,meteo_script,2013-09-07 18:10:00,
2013-09-07 14:20:00,84.4,64.0,29.80,North,0,0.9,4.0,50,0.00,,,0.00,meteo_script,2013-09-07 18:20:00,
2013-09-07 14:25:00,84.6,63.3,29.79,SSW,212,0.3,1.0,49,0.00,,,0.00,meteo_script,2013-09-07 18:25:00,
2013-09-07 14:35:00,84.8,64.2,29.79,SSW,212,0.4,2.0,50,0.00,,,0.00,meteo_script,2013-09-07 18:35:00,
2013-09-07 14:40:00,85.1,65.7,29.79,SSW,213,0.4,2.0,52,0.00,,,0.00,meteo_script,2013-09-07 18:40:00,
2013-09-07 14:45:00,84.9,64.0,29.79,SW,214,0.7,4.0,49,0.00,,,0.00,meteo_script,2013-09-07 18:45:00,
2013-09-07 14:55:00,83.2,63.7,29.78,SSW,212,1.2,3.0,52,0.00,,,0.00,meteo_script,2013-09-07 18:55:00,
2013-09-07 15:00:00,82.9,63.0,29.79,SSW,197,1.2,6.0,51,0.00,,,0.00,meteo_script,2013-09-07 19:00:00,
2013-09-07 15:10:00,81.7,63.2,29.78,SW,226,0.6,3.0,53,0.00,,,0.00,meteo_script,2013-09-07 19:10:00,
2013-09-07 15:15:00,81.5,63.7,29.78,SSW,213,0.6,3.0,55,0.00,,,0.00,meteo_script,2013-09-07 19:15:00,
2013-09-07 15:25:00,81.0,62.4,29.78,WSW,254,1.1,4.0,53,0.00,,,0.00,meteo_script,2013-09-07 19:25:00,
2013-09-07 15:30:00,81.0,62.4,29.78,WSW,245,0.9,4.0,53,0.00,,,0.00,meteo_script,2013-09-07 19:30:00,
2013-09-07 15:35:00,81.1,62.9,29.78,WSW,238,0.8,4.0,54,0.00,,,0.00,meteo_script,2013-09-07 19:35:00,
2013-09-07 15:45:00,79.6,61.1,29.78,SSW,203,1.9,5.0,53,0.00,,,0.00,meteo_script,2013-09-07 19:45:00,
2013-09-07 15:50:00,78.9,60.9,29.78,SSW,205,1.4,4.0,54,0.00,,,0.00,meteo_script,2013-09-07 19:50:00,
2013-09-07 15:55:00,78.4,61.4,29.77,SSW,200,1.0,5.0,56,0.00,,,0.00,meteo_script,2013-09-07 19:55:00,
2013-09-07 16:05:00,78.5,62.3,29.77,SW,220,0.8,5.0,57,0.00,,,0.00,meteo_script,2013-09-07 20:05:00,
2013-09-07 16:10:00,78.1,62.1,29.77,SSE,166,0.8,4.0,57,0.00,,,0.00,meteo_script,2013-09-07 20:10:00,
2013-09-07 16:20:00,77.9,62.4,29.77,WSW,240,0.9,4.0,59,0.00,,,0.00,meteo_script,2013-09-07 20:20:00,
2013-09-07 16:25:00,77.6,62.1,29.78,SSW,209,1.7,6.0,59,0.00,,,0.00,meteo_script,2013-09-07 20:25:00,
2013-09-07 16:30:00,77.3,62.1,29.77,South,187,1.7,4.0,59,0.00,,,0.00,meteo_script,2013-09-07 20:30:00,
2013-09-07 16:40:00,76.8,61.8,29.77,South,180,0.9,3.0,59,0.00,,,0.00,meteo_script,2013-09-07 20:40:00,
2013-09-07 16:45:00,76.6,61.9,29.77,South,180,0.7,2.0,60,0.00,,,0.00,meteo_script,2013-09-07 20:45:00,
2013-09-07 16:55:00,76.3,62.8,29.78,South,180,0.5,2.0,63,0.00,,,0.00,meteo_script,2013-09-07 20:55:00,
2013-09-07 17:00:00,76.2,63.1,29.78,South,187,0.5,4.0,64,0.00,,,0.00,meteo_script,2013-09-07 21:00:00,
2013-09-07 17:05:00,76.2,63.0,29.77,South,188,0.6,3.0,63,0.00,,,0.00,meteo_script,2013-09-07 21:05:00,
2013-09-07 17:15:00,75.9,63.1,29.77,North,0,0.3,2.0,64,0.00,,,0.00,meteo_script,2013-09-07 21:15:00,
2013-09-07 17:20:00,75.7,63.5,29.77,SSW,208,0.4,3.0,65,0.00,,,0.00,meteo_script,2013-09-07 21:20:00,
2013-09-07 17:25:00,75.4,63.3,29.77,SSW,210,0.7,3.0,66,0.00,,,0.00,meteo_script,2013-09-07 21:25:00,
2013-09-07 17:35:00,75.0,62.8,29.77,SSW,210,0.5,2.0,65,0.00,,,0.00,meteo_script,2013-09-07 21:35:00,
2013-09-07 17:40:00,74.9,62.8,29.77,SSW,210,0.4,2.0,66,0.00,,,0.00,meteo_script,2013-09-07 21:40:00,
2013-09-07 17:50:00,74.5,62.8,29.77,SSW,210,0.1,1.0,67,0.00,,,0.00,meteo_script,2013-09-07 21:50:00,
2013-09-07 17:55:00,74.2,62.8,29.77,SSW,210,0.2,2.0,67,0.00,,,0.00,meteo_script,2013-09-07 21:55:00,
2013-09-07 18:00:00,73.9,62.7,29.77,SSW,210,0.2,1.0,68,0.00,,,0.00,meteo_script,2013-09-07 22:00:00,
2013-09-07 18:10:00,73.5,63.1,29.77,North,0,0.0,0.0,70,0.00,,,0.00,meteo_script,2013-09-07 22:10:00,
2013-09-07 18:15:00,73.3,63.3,29.77,SSW,210,0.0,1.0,71,0.00,,,0.00,meteo_script,2013-09-07 22:15:00,
2013-09-07 18:25:00,72.8,63.3,29.77,North,0,0.0,0.0,72,0.00,,,0.00,meteo_script,2013-09-07 22:25:00,
2013-09-07 18:30:00,72.6,63.0,29.77,North,0,0.0,0.0,72,0.00,,,0.00,meteo_script,2013-09-07 22:30:00,
2013-09-07 18:35:00,72.4,63.1,29.77,North,0,0.0,0.0,72,0.00,,,0.00,meteo_script,2013-09-07 22:35:00,
2013-09-07 18:45:00,72.0,63.0,29.77,North,0,0.0,0.0,73,0.00,,,0.00,meteo_script,2013-09-07 22:45:00,
2013-09-07 18:50:00,71.8,63.1,29.77,North,0,0.0,1.0,74,0.00,,,0.00,meteo_script,2013-09-07 22:50:00,
2013-09-07 19:00:00,71.5,63.1,29.77,North,0,0.0,0.0,75,0.00,,,0.00,meteo_script,2013-09-07 23:00:00,
2013-09-07 19:05:00,71.3,63.0,29.77,North,0,0.0,0.0,75,0.00,,,0.00,meteo_script,2013-09-07 23:05:00,
2013-09-07 19:10:00,71.2,63.0,29.77,North,0,0.0,0.0,75,0.00,,,0.00,meteo_script,2013-09-07 23:10:00,
2013-09-07 19:20:00,70.9,62.9,29.76,North,0,0.0,1.0,76,0.00,,,0.00,meteo_script,2013-09-07 23:20:00,
2013-09-07 19:25:00,70.8,63.2,29.77,SSW,212,0.0,1.0,77,0.00,,,0.00,meteo_script,2013-09-07 23:25:00,
2013-09-07 19:35:00,70.5,63.3,29.77,North,0,0.0,0.0,78,0.00,,,0.00,meteo_script,2013-09-07 23:35:00,
2013-09-07 19:40:00,70.3,63.5,29.77,North,0,0.0,0.0,79,0.00,,,0.00,meteo_script,2013-09-07 23:40:00,
2013-09-07 19:45:00,70.1,63.3,29.77,North,0,0.0,0.0,79,0.00,,,0.00,meteo_script,2013-09-07 23:45:00,
2013-09-07 19:55:00,70.0,63.1,29.76,North,0,0.0,1.0,79,0.00,,,0.00,meteo_script,2013-09-07 23:55:00,
2013-09-07 20:00:00,69.8,63.4,29.77,North,0,0.0,2.0,80,0.00,,,0.00,meteo_script,2013-09-08 00:00:00,
2013-09-07 20:10:00,69.4,63.6,29.76,North,0,0.0,0.0,82,0.00,,,0.00,meteo_script,2013-09-08 00:10:00,
2013-09-07 20:15:00,69.1,63.4,29.77,North,0,0.0,0.0,82,0.00,,,0.00,meteo_script,2013-09-08 00:15:00,
2013-09-07 20:20:00,68.9,63.6,29.77,North,0,0.0,0.0,83,0.00,,,0.00,meteo_script,2013-09-08 00:20:00,
2013-09-07 20:30:00,68.7,63.6,29.77,SSW,212,0.0,1.0,83,0.00,,,0.00,meteo_script,2013-09-08 00:30:00,
2013-09-07 20:35:00,68.5,63.6,29.76,North,0,0.0,0.0,84,0.00,,,0.00,meteo_script,2013-09-08 00:35:00,
2013-09-07 20:45:00,68.2,63.5,29.76,North,0,0.0,1.0,85,0.00,,,0.00,meteo_script,2013-09-08 00:45:00,
2013-09-07 20:50:00,68.0,63.6,29.76,North,0,0.0,0.0,86,0.00,,,0.00,meteo_script,2013-09-08 00:50:00,
2013-09-07 20:55:00,67.9,63.5,29.76,North,0,0.0,0.0,86,0.00,,,0.00,meteo_script,2013-09-08 00:55:00,
2013-09-07 21:05:00,67.6,63.6,29.77,North,0,0.0,0.0,87,0.00,,,0.00,meteo_script,2013-09-08 01:05:00,
2013-09-07 21:10:00,67.6,63.3,29.76,North,0,0.0,0.0,86,0.00,,,0.00,meteo_script,2013-09-08 01:10:00,
2013-09-07 21:15:00,67.6,63.3,29.77,North,0,0.0,0.0,86,0.00,,,0.00,meteo_script,2013-09-08 01:15:00,
2013-09-07 21:25:00,67.8,63.1,29.77,North,0,0.0,1.0,85,0.00,,,0.00,meteo_script,2013-09-08 01:25:00,
2013-09-07 21:30:00,67.9,63.3,29.77,North,0,0.0,0.0,85,0.00,,,0.00,meteo_script,2013-09-08 01:30:00,
2013-09-07 21:40:00,67.9,63.2,29.76,North,0,0.0,1.0,85,0.00,,,0.00,meteo_script,2013-09-08 01:40:00,
2013-09-07 21:45:00,67.8,63.4,29.76,North,0,0.0,1.0,86,0.00,,,0.00,meteo_script,2013-09-08 01:45:00,
2013-09-07 21:50:00,67.5,63.4,29.76,North,0,0.0,0.0,86,0.00,,,0.00,meteo_script,2013-09-08 01:50:00,
2013-09-07 22:00:00,67.0,63.4,29.76,SSW,212,0.0,1.0,88,0.00,,,0.00,meteo_script,2013-09-08 02:00:00,
2013-09-07 22:05:00,66.7,63.4,29.76,North,0,0.0,0.0,89,0.00,,,0.00,meteo_script,2013-09-08 02:05:00,
2013-09-07 22:15:00,66.2,63.5,29.76,North,0,0.0,0.0,91,0.00,,,0.00,meteo_script,2013-09-08 02:15:00,
2013-09-07 22:20:00,66.0,63.3,29.76,North,0,0.0,0.0,91,0.00,,,0.00,meteo_script,2013-09-08 02:20:00,
2013-09-07 22:25:00,65.8,63.4,29.76,North,0,0.0,0.0,92,0.00,,,0.00,meteo_script,2013-09-08 02:25:00,
2013-09-07 22:35:00,65.5,63.4,29.76,North,0,0.0,0.0,93,0.00,,,0.00,meteo_script,2013-09-08 02:35:00,
2013-09-07 22:40:00,65.4,63.6,29.76,North,0,0.0,0.0,94,0.00,,,0.00,meteo_script,2013-09-08 02:40:00,
2013-09-07 22:45:00,65.3,63.6,29.76,North,0,0.0,0.0,94,0.00,,,0.00,meteo_script,2013-09-08 02:45:00,
2013-09-07 22:55:00,65.0,63.5,29.75,North,0,0.0,0.0,95,0.00,,,0.00,meteo_script,2013-09-08 02:55:00,
2013-09-07 23:00:00,64.8,63.6,29.75,North,0,0.0,0.0,96,0.00,,,0.00,meteo_script,2013-09-08 03:00:00,
2013-09-07 23:10:00,64.7,63.4,29.75,SSW,212,0.0,1.0,95,0.00,,,0.00,meteo_script,2013-09-08 03:10:00,
2013-09-07 23:15:00,64.8,63.0,29.75,North,0,0.1,2.0,94,0.00,,,0.00,meteo_script,2013-09-08 03:15:00,
2013-09-07 23:20:00,64.9,62.9,29.74,North,0,0.1,0.0,93,0.00,,,0.00,meteo_script,2013-09-08 03:20:00,
2013-09-07 23:30:00,65.0,63.0,29.73,SSW,212,0.0,2.0,93,0.00,,,0.00,meteo_script,2013-09-08 03:30:00,
2013-09-07 23:35:00,65.0,62.7,29.73,North,0,0.0,1.0,92,0.00,,,0.00,meteo_script,2013-09-08 03:35:00,
2013-09-07 23:45:00,65.0,62.8,29.73,SSW,212,0.0,1.0,92,0.00,,,0.00,meteo_script,2013-09-08 03:45:00,
2013-09-07 23:50:00,65.1,63.1,29.73,North,0,0.0,0.0,93,0.00,,,0.00,meteo_script,2013-09-08 03:50:00,
2013-09-07 23:55:00,65.0,63.3,29.73,North,0,0.0,0.0,94,0.00,,,0.00,meteo_script,2013-09-08 03:55:00,